Regional Weather Roundup
Issued by NWS Wakefield, VA

Home | Current Version | Previous Version | Text Only | Print | Product List | Glossary On
Versions: 1 2 3 4 5 6 7 8 9 10 11 12 13 14 15 16 17 18 19 20 21 22 23 24 25 26 27 28 29 30 31 32 33 34 35 36 37 38 39 40 41 42 43 44 45 46 47 48 49 50
000
ASUS41 KAKQ 041515
RWRAKQ

REGIONAL WEATHER ROUNDUP
NATIONAL WEATHER SERVICE WAKEFIELD VA
1100 AM EDT TUE AUG 04 2015

Note: "fair" indicates few or no clouds below 12,000 feet with no
significant weather and/or obstructions to visibility. * = Denotes
station may not report precipitation (e.g., rain,snow,etc.),
thunder or fog.

VAZ042-051-052>054-056-041600-
NORTHERN VIRGINIA

CITY           SKY/WX    TMP DP  RH WIND       PRES   REMARKS
WASH NATIONAL  MOSUNNY   89  66  46 W7        29.94S
DULLES         SUNNY     83  66  56 CALM      29.95S
FORT BELVOIR   SUNNY     85  68  56 S6        29.94R
QUANTICO         N/A     83  71  67 S9        29.94R
FREDERICKSBRG* SUNNY     88  72  58 SW6       29.94S
STAFFORD*      SUNNY     85  67  54 SW3       29.98S
WARRENTON      SUNNY     87  71  58 CALM      29.94F
CULPEPER*      SUNNY     83  68  60 SW3       29.96S
MANASSAS*      SUNNY     84  70  61 S3        29.94S
LEESBURG*      MOSUNNY   84  72  65 SW8       29.95F
WINCHESTER     MOSUNNY   84  64  51 SW8       29.96S
FRONT ROYAL*   FAIR      82  64  54 S3        29.95S
LURAY*         FAIR      88  64  45 SW8       29.98R
$$

VAZ048-049-060>072-079>083-041600-
CENTRAL AND SOUTH CENTRAL VIRGINIA

CITY           SKY/WX    TMP DP  RH WIND       PRES   REMARKS
RICHMOND       MOSUNNY   87  71  58 SW10      29.96F
CHESTERFIELD*  FAIR      88  66  48 SW10      29.98F
PETERSBURG*    SUNNY     87  78  72 SW9       29.99S HX 100
HANOVER        SUNNY     85  70  60 SW7       29.98S
TAPPAHANNOCK*  SUNNY     85  70  60 CALM      29.96S
QUINTON*       FAIR      85  74  67 SW6       29.96S
CHARLOTTSVILLE SUNNY     85  61  44 SW7       29.97S
GORDONSVILLE*  FAIR      84  66  54 SW7       29.96S
ORANGE*        SUNNY     86  68  54 CALM      29.97S
LOUISA*        SUNNY     88  68  51 W5        29.95F
BUMPASS*       FAIR      85  69  58 SW6       29.96S
FARMVILLE*     SUNNY     88  68  51 SW7       29.97S
CREWE*         FAIR     N/A N/A N/A S7        29.98S
FORT PICKETT*  FAIR      86  73  64 S12G17    29.99S
CHASE CITY*    FAIR      87  76  70 SW5       30.01S HX  96
CLARKSVILLE*   FAIR      84  72  65 S6        30.00S
SOUTH HILL*    MOSUNNY   85  74  68 S12       30.06F
LAWRENCEVILLE* FAIR      86  73  66 S14       30.00S
EMPORIA*       MOSUNNY   86  73  66 SW10      30.01S
$$

VAZ088>098-041600-
SOUTHEAST VIRGINIA

CITY           SKY/WX    TMP DP  RH WIND       PRES   REMARKS
NORFOLK        SUNNY     88  71  57 SW16      29.97S
VIRGINIA BEACH MOSUNNY   90  73  57 SW18      29.97S HX  98
NORFOLK NAVAL  MOSUNNY   85  73  67 SW13G21   30.00R
WEST POINT*    SUNNY     88  71  57 S7        29.98S
SALUDA*        FAIR      84  74  71 SW6       29.96R
NEWPORT NEWS   PTSUNNY   85  74  69 W9        29.98R
LANGLEY AFB    SUNNY     85  75  72 SW17      29.97S
FORT EUSTIS    MOSUNNY   87  72  61 SW9G16    29.97R
WILLIAMSBURG*  SUNNY     90  75  62 SW8G16    29.99S HX 100
HR EXEC AP*    FAIR      88  75  66 SW14G21   30.00F HX  97
FRANKLIN*      MOSUNNY   87  74  66 SW9       30.00R HX  95
WAKEFIELD      PTSUNNY   87  73  62 SW9       29.99R
$$

VAZ020-022-025-037-045-041600-
WEST CENTRAL AND SOUTHWEST VIRGINIA

CITY           SKY/WX    TMP DP  RH WIND       PRES   REMARKS
STAUNTON*      SUNNY     87  60  40 W9        30.02S
WAYNESBORO*    FAIR      81  60  49 W6        30.02S
HOT SPRINGS VA SUNNY     72  61  67 W8        30.14R
LYNCHBURG      SUNNY     84  65  52 VRB3      30.01S
DANVILLE       SUNNY     84  72  67 SW5       30.01S
SOUTH BOSTON*  FAIR      85  74  68 S8        30.00S
MARTINSVILLE   SUNNY     85  69  57 CALM      30.05R
ROANOKE        MOSUNNY   84  64  50 SW5       30.03S
BLACKSBURG     SUNNY     81  67  61 SW5       30.10S
DUBLIN*          N/A     83  65  55 W6        30.09R
MARION*        SUNNY     78  63  60 W13       30.14R
HILLSVILLE*    SUNNY     78  65  63 SW8       30.11R
RICHLANDS*     FAIR      77  67  71 W7        30.12R
WISE*          SUNNY     81  63  54 W9        30.13R
ABINGDON*      SUNNY     80  62  54 W7        30.11R
$$

MDZ021>025-VAZ099-100-041600-
SOUTHERN MARYLAND AND THE DELMARVA PENINSULA

CITY           SKY/WX    TMP DP  RH WIND       PRES   REMARKS
PATUXENT RIVER MOSUNNY   85  71  63 W9        29.94R
BAY BRIDGE APT   N/A     82  64  54 SW6       29.93R
LEONARDTOWN    SUNNY     82  70  65 SW7       29.96S
DOVER          SUNNY     87  69  55 W16G22    29.90R
GEORGETOWN     SUNNY     86  71  60 SW10      29.92S
EASTON         MOSUNNY   86  73  66 SW7       29.97R
CAMBRIDGE      SUNNY     82  70  65 SW8       29.92S
SALISBURY      SUNNY     85  74  69 SW10      29.93S
OCEAN CITY     SUNNY     88  72  58 W16       29.93R
WALLOPS ISLAND MOSUNNY   86  75  69 SW15G25   29.95S HX  95
ACCOMACK*      SUNNY     86  86 100 SW14G20   29.96R HX 112
$$

NCZ012>017-030>032-041600-
NORTH CENTRAL AND EASTERN NORTH CAROLINA

CITY           SKY/WX    TMP DP  RH WIND       PRES   REMARKS
ROANOKE RAPIDS FAIR      86  73  66 S13       30.01S
RALEIGH        MOSUNNY   86  72  62 SW10      30.03R
ELIZABETH CITY MOSUNNY   87  77  72 SW15      30.01S HX  99
AHOSKIE*       MOSUNNY   88  75  65 CALM      30.01R HX  97
EDENTON*         N/A     87  74  66 SW12      30.02S HX  95
CURRITUCK*     MOSUNNY   87  72  61 SW9G16    30.01S
KILL DEVIL HLS SUNNY     89  75  64 SW5       30.01S HX  98
MANTEO         SUNNY     85  73  68 SW14      30.03S
CAPE HATTERAS  CLOUDY    81  76  84 S6        30.06R
TARBORO*         N/A     87  73  62 S6        30.02S HX  95
GOLDSBORO      PTSUNNY   85  75  70 S7        30.00R
WASHINGTON     PTSUNNY   84  74  73 SW8       30.03R
GREENVILLE     MOSUNNY   88  73  62 SW14      30.03S HX  96
NEW BERN       CLOUDY    81  75  82 S7        30.05S
WILMINGTON     CLOUDY    80  74  81 S14G22    30.00R
$$

VAZ048-041600-
ELSEWHERE

CITY           SKY/WX    TMP DP  RH WIND       PRES   REMARKS
HARRISBURG PA  SUNNY     83  63  50 W13       29.90S
BALTIMORE      MOSUNNY   83  68  60 W9        29.92S
ANNAPOLIS      SUNNY     83  64  52 NW8       29.93R
ANDREWS AFB    SUNNY     85  66  52 W9        29.94R
PHILADELPHIA   MOSUNNY   84  65  52 W14       29.90S
HENDERSON NC   MOSUNNY   85  69  59 S8        30.02S
GREENSBORO     MOSUNNY   85  70  60 S7        30.02R
ROCKY MOUNT    MOSUNNY   90  72  55 S12       30.01F HX  97
$$

VAZ100-041600-
MARINE

STATION/POSITION TIME  TEMP    WIND        PRES    WAVE   SWELL
                       AIR SEA DIR/SP/G            HT/PER HT/PER
                 (UTC) (F)     (DEG/KT/KT) (MB)    (FT/S) (FT/S)
BRANDYWINE LGT   1400   79 78  230/ 13/ 14 1012.7S
CAPE MAY NJ      1400   79 76  240/  9/ 10 1012.3F
LEWES DE         1400   84 72  260/  5/ 11 1012.5S
15NM E FENWICK I 1450   79 79  210/ 16/ 19 1012.9R   6/ 7   3/ 7
OCEAN-CITY-INLET 1400   82 77  270/ 11/ 14 1012.3F
WACHAPREAGUE VA  1412   84 81  240/ 12/ 18 1014.4R
GOOSES REEF MD   1500   82 82  270/  6/  8 1014.6R
COVE POINT MD    1400   80     250/ 11/ 15 1014.0F
SOLOMONS ISLAND  1400      83                N/A
BISHOPS HEAD MD  1400   80 80  240/  8/  9 1013.0R
PINEY POINT MD   1400          270/  8/ 10   N/A
POTOMAC MD       1500   83 83  260/ 10/ 12 1012.8R   1/ 2
CAMBRIDGE MD     1400   81 84  220/ 10/ 13 1012.5R
LEWISETTA VA     1400   81 84  270/ 11/ 13 1013.7R
RAPPAHANNOCK LGT 1400          210/ 17/ 19 1014.8R
STINGRAY PT      1500   84 83  250/ 16/ 19 1014.3R   2/ 3
YORK RVR RNG VA  1400   82     240/ 14/ 17 1014.1R
YORKTOWN VA      1400   82 83  230/ 13/ 17 1014.3R
JAMESTOWN VA     1500   84 85  230/ 12/ 17   N/A
DOMINION TERM VA 1400   81     230/ 16/ 20 1014.7R
KIPTOPEKE VA     1400      81  250/ 15/ 18   N/A
CHES BAY BRIDGE  1400   81 80  210/ 18/ 21 1014.3F
CAPE HENRY VA    1400   83     220/ 11/ 18   N/A
CHESAPEAKE LGHT  1400   78     210/ 16/ 17 1015.7F
WILLOUBY STN VA  1400   81     240/ 16/ 18 1015.8F
CAPE HENRY BUOY  1428      76                N/A     4/ 6   2/11
1ST LANDING BUOY 1500      81              1014.5S   2/ 4
CAPE CHARLES BUO 1426      71                N/A     3/ 6   2/11
OFFSHORE WE BUOY 1411      81                N/A     4/ 7   2/ 7
64NM E OF VA BCH 1450   81 81  220/ 16/ 19 1015.4S   4/ 7   2/ 8
DUCK PIER NC     1400   82 62  220/ 12/ 15 1015.5R
44100 DUCK FRF   1424      78                N/A     3/ 5
44056 DUCK FRF   1411      72                N/A     2/ 5
OREGON INLET NC  1400   81 80  200/ 16/ 19 1016.7S
HATTERAS NC      1400   81 78  200/  4/  6 1016.8F
DIAMOND SHLS NC  1450   81 84  190/ 19/ 23 1017.6F   4/ 7   2/ 7
CAPE LOOKOUT NC  1500   81     180/ 17/ 20 1016.7R
$$


USA.gov is the U.S. government's official web portal to all federal, state and local government web resources and services.